Location: Caltech
(34.1382°N, 118.1253°W)
Time: 05:10:15
(UTC-07:00)

Cosmos 2219 Rocket - Visible Passes

Search period start: 28 April 2017 00:00
Search period end: 08 May 2017 00:00
Orbit: 828 x 847 km, 71.0° (Epoch: 26 April)

Date Brightness Start Highest point End Pass type
(mag) Time Alt. Az. Time Alt. Az. Time Alt. Az.
28 Apr 3.5 21:01:36 21° E 21:01:36 21° E 21:04:40 10° NE visible
28 Apr 3.2 22:43:11 38° W 22:44:04 41° WNW 22:49:23 10° N visible
29 Apr 3.4 20:43:24 19° ESE 20:44:11 20° E 20:48:08 10° NE visible
29 Apr 3.1 22:24:55 26° WSW 22:27:43 45° WNW 22:33:05 10° N visible
30 Apr 3.5 20:24:11 10° SE 20:27:53 18° E 20:31:35 10° ENE visible
30 Apr 3.0 22:05:58 10° SW 22:11:20 49° WNW 22:16:47 10° N visible
01 May 3.6 20:08:11 10° SE 20:11:34 17° E 20:15:00 10° ENE visible
01 May 2.9 21:49:32 10° SW 21:54:59 53° WNW 22:00:29 10° N visible
02 May 2.7 21:33:08 10° SW 21:38:37 58° WNW 21:44:10 10° NNE visible
03 May 2.6 21:16:44 10° SSW 21:22:16 63° WNW 21:27:51 10° NNE visible
04 May 2.5 21:00:21 10° SSW 21:05:54 69° WNW 21:11:32 10° NNE visible
05 May 2.4 20:43:59 10° SSW 20:49:33 75° WNW 20:55:12 10° NNE visible
06 May 2.3 20:27:37 10° SSW 20:33:12 82° WNW 20:38:51 10° NNE visible
06 May 5.5 22:17:32 10° WNW 22:18:01 10° NW 22:18:30 10° NW visible
07 May 5.0 05:25:41 10° N 05:30:17 25° ENE 05:34:52 10° ESE visible
07 May 2.2 20:11:16 10° SSW 20:16:51 88° WNW 20:22:31 10° NNE visible
07 May 5.5 22:00:01 10° WNW 22:01:35 11° NW 22:03:10 10° NW visible
